Location: Erdweis
(48.5167°N, 15.3500°E)
Time: 11:27:03
(UTC+00:00)

X-37B - Pass Details

Date: 03 December 2020
Orbit: 384 x 390 km, 45.0° (Epoch: 02 January)

Event Time Altitude Azimuth Distance (km) Brightness Sun altitude
Rises 17:04:19 0° 260° (W) 2,263 6.2 -19.0°
Reaches altitude 10° 17:06:26 10° 254° (WSW) 1,410 4.7 -19.3°
Maximum altitude 17:09:29 44° 181° (S) 545 1.3 -19.8°
Enters shadow 17:09:33 44° 176° (S) 545 1.3 -19.8°
